(276501) = 2003 QD58 = 2002 GF118

Discovered at Socorro on 2003-08-23 by LINEAR.

Orbit

Orbit type: Main Belt

Note: WebGL enabled browser required.

epoch2024-03-31.0
epoch JD2460400.5
perihelion date2020-12-17.15503
perihelion JD2459200.65503
argument of perihelion (°)153.81764
ascending node (°)145.72689
inclination (°)14.08217
eccentricity0.1922567
perihelion distance (AU)2.1723695
Tisserand w.r.t. Jupiter3.3
ΔV w.r.t. Earth (km/sec)10.2
semimajor axis (AU)2.6894306
mean anomaly (°)268.12571
mean daily motion (°/day)0.22346700
aphelion distance (AU)3.206
period (years)4.41
P-vector [x]0.50056697
P-vector [y]-0.83083523
P-vector [z]-0.24319853
Q-vector [x]0.85478564
Q-vector [y]0.51881708
Q-vector [z]-0.01305126
absolute magnitude16.06
phase slope0.15
uncertainty0
referenceMPEC 2024-F62
observations used559
oppositions14
arc length (days)8013
first opposition used2002
last opposition used2024
residual rms (arc-secs)0.78
perturbers coarse indicatorM-v
perturbers precise indicator003Ek
first observation date used2002-04-12.0
last observation date used2024-03-20.0
computer nameMPCLINUX
Minimum Orbit Intersection Distances (in AU)
for orbit epoch: 2460400.5, reference: E2024-GH2
Mercury1.74291
Venus1.45506
Earth1.16579
Mars0.80185
Jupiter2.1021
Saturn5.92041
Uranus15.3418
Neptune26.9368

Observations

575 total observations over interval: 2002 04 12.14104 – 2024 03 20.215940
These data are available for download (format description).

Date (UT) J2000 RA J2000 Dec Magn Location Ref
2002 04 12.14104 12 47 01.63 +12 04 19.2 19.6   644 – Palomar Mountain/NEAT MPS 57519
2002 04 12.16189 12 47 00.66 +12 04 28.3 19.9   644 – Palomar Mountain/NEAT MPS 57519
2002 04 12.18282 12 46 59.64 +12 04 36.9 19.8   644 – Palomar Mountain/NEAT MPS 57519
2002 04 13.14544 12 46 14.94 +12 11 17.4 20.0   644 – Palomar Mountain/NEAT MPS 57519
2002 04 13.15628 12 46 14.40 +12 11 21.6 20.0   644 – Palomar Mountain/NEAT MPS 57519
2002 04 13.16831 12 46 13.87 +12 11 27.0 19.9   644 – Palomar Mountain/NEAT MPS 57519
2003 08 04.33675 23 21 25.07 -07 06 48.1 19.1 C 704 – Lincoln Laboratory ETS, New Mexico MPS 290166
2003 08 04.35785 23 21 24.80 -07 07 00.8 19.4 C 704 – Lincoln Laboratory ETS, New Mexico MPS 290166
2003 08 04.36826 23 21 24.69 -07 07 05.7 19.4 C 704 – Lincoln Laboratory ETS, New Mexico MPS 290166
2003 08 04.37861 23 21 24.54 -07 07 12.9 19.7 C 704 – Lincoln Laboratory ETS, New Mexico MPS 290166
2003 08 23.31674 23 14 09.36 -10 50 38.5 19.4   704 – Lincoln Laboratory ETS, New Mexico MPS 83510
2003 08 23.32772 23 14 09.03 -10 50 47.4 19.0   644 – Palomar Mountain/NEAT MPS 84116
2003 08 23.32921 23 14 08.85 -10 50 47.7 19.2   704 – Lincoln Laboratory ETS, New Mexico MPS 83510
2003 08 23.32939 23 14 08.98 -10 50 48.6 18.7   644 – Palomar Mountain/NEAT MPS 84116
2003 08 23.34190 23 14 08.46 -10 50 58.4 19.4   704 – Lincoln Laboratory ETS, New Mexico MPS 83510
2003 08 23.35523 23 14 08.00 -10 51 08.7 18.9   644 – Palomar Mountain/NEAT MPS 84116
2003 08 23.35962 23 14 07.84 -10 51 12.0 19.0   644 – Palomar Mountain/NEAT MPS 84116
2003 08 23.39178 23 14 06.62 -10 51 36.8 18.9   644 – Palomar Mountain/NEAT MPS 84116
2003 08 23.39888 23 14 06.38 -10 51 42.3 18.8   644 – Palomar Mountain/NEAT MPS 84116
2003 08 26.30652 23 12 21.38 -11 29 12.3 18.4   704 – Lincoln Laboratory ETS, New Mexico MPS 83510
2003 08 26.31942 23 12 20.86 -11 29 22.6 18.5   704 – Lincoln Laboratory ETS, New Mexico MPS 83510
2003 08 26.33185 23 12 20.37 -11 29 31.9 18.3   704 – Lincoln Laboratory ETS, New Mexico MPS 83510
2003 08 26.34512 23 12 19.78 -11 29 42.6 18.6   704 – Lincoln Laboratory ETS, New Mexico MPS 83510
2003 08 31.27012 23 09 07.58 -12 33 07.8 18.3   704 – Lincoln Laboratory ETS, New Mexico MPS 84116
2003 08 31.28199 23 09 07.10 -12 33 16.6 18.7   704 – Lincoln Laboratory ETS, New Mexico MPS 84116
2003 08 31.30555 23 09 06.10 -12 33 35.2 18.6   704 – Lincoln Laboratory ETS, New Mexico MPS 84116
2003 08 31.31744 23 09 05.54 -12 33 44.4 18.7   704 – Lincoln Laboratory ETS, New Mexico MPS 84116
2003 09 13.39094 23 00 06.51 -15 10 30.2 19.8   608 – Haleakala-AMOS MPS 84577
2003 09 13.40159 23 00 06.07 -15 10 36.3 19.8   608 – Haleakala-AMOS MPS 84577
2003 09 13.41243 23 00 05.59 -15 10 43.5 20.4   608 – Haleakala-AMOS MPS 84577
2003 09 29.10359 22 51 13.87 -17 31 22.2 18.6 R 699 – Lowell Observatory-LONEOS MPS 86248
2003 09 29.11690 22 51 13.47 -17 31 26.9   699 – Lowell Observatory-LONEOS MPS 86248
2003 09 29.13020 22 51 13.00 -17 31 31.7   699 – Lowell Observatory-LONEOS MPS 86248
2003 09 29.14350 22 51 12.68 -17 31 38.3   699 – Lowell Observatory-LONEOS MPS 86248
2006 01 07.48700 10 58 17.83 +07 12 24.3 20.9 V G96 – Mt. Lemmon Survey MPS 158944
2006 01 07.49339 10 58 17.79 +07 12 25.4 20.6 V G96 – Mt. Lemmon Survey MPS 158944
2006 01 07.49984 10 58 17.83 +07 12 26.9 21.0 V G96 – Mt. Lemmon Survey MPS 158944
2006 01 07.50634 10 58 17.79 +07 12 28.2 20.7 V G96 – Mt. Lemmon Survey MPS 158944
2006 02 21.41156 10 37 13.54 +12 18 15.5 19.8 V G96 – Mt. Lemmon Survey MPS 163784
2006 02 21.42117 10 37 13.08 +12 18 20.6 19.8 V G96 – Mt. Lemmon Survey MPS 163784
2006 02 21.43073 10 37 12.61 +12 18 25.4 19.9 V G96 – Mt. Lemmon Survey MPS 163784
2006 02 21.44027 10 37 12.14 +12 18 29.9 19.8 V G96 – Mt. Lemmon Survey MPS 163784
2010 01 08.28938 08 50 53.50 +10 12 31.9 20.5 V 691 – Steward Observatory, Kitt Peak-Spacewatch MPS 310157
2010 01 08.30711 08 50 52.71 +10 12 36.7 20.6 V 691 – Steward Observatory, Kitt Peak-Spacewatch MPS 310157
2010 01 08.32485 08 50 51.95 +10 12 41.7 20.9 V 691 – Steward Observatory, Kitt Peak-Spacewatch MPS 310157
2010 01 12.22923 08 47 59.63 +10 32 16.4   691 – Steward Observatory, Kitt Peak-Spacewatch MPS 310157
2010 01 12.24694 08 47 58.78 +10 32 21.6   691 – Steward Observatory, Kitt Peak-Spacewatch MPS 310157
2010 01 12.26462 08 47 57.95 +10 32 27.4   691 – Steward Observatory, Kitt Peak-Spacewatch MPS 310157
2011 03 26.45053 14 28 39.14 +04 24 42.1 19.9 V 703 – Catalina Sky Survey MPS 375500
2011 03 26.45851 14 28 39.03 +04 24 46.8 19.7 V 703 – Catalina Sky Survey MPS 375500
2011 03 26.46645 14 28 38.82 +04 24 50.8 19.8 V 703 – Catalina Sky Survey MPS 375500
2011 03 26.47434 14 28 38.53 +04 24 55.4 19.8 V 703 – Catalina Sky Survey MPS 375500
2011 04 29.25988 14 05 40.91 +09 12 07.6 20.0   704 – Lincoln Laboratory ETS, New Mexico MPS 380014
2011 04 29.27030 14 05 40.37 +09 12 11.6 19.8   704 – Lincoln Laboratory ETS, New Mexico MPS 380014
2011 04 29.29147 14 05 39.28 +09 12 19.3 19.4   704 – Lincoln Laboratory ETS, New Mexico MPS 380014
2012 07 18.74409 00 58 18.01 -00 53 01.7 20.0 V E12 – Siding Spring Survey MPS 428632
2012 07 18.75928 00 58 18.80 -00 53 04.5 19.9 V E12 – Siding Spring Survey MPS 428632
2012 07 18.77450 00 58 19.59 -00 53 05.6 19.7 V E12 – Siding Spring Survey MPS 428632
2012 07 18.78966 00 58 20.35 -00 53 08.7 20.2 V E12 – Siding Spring Survey MPS 428632
2012 08 02.56368 01 09 02.058 -01 52 09.43 19.6 z F51 – Pan-STARRS 1, Haleakala MPS 429305
2012 08 02.57585 01 09 02.462 -01 52 13.51 19.4 z F51 – Pan-STARRS 1, Haleakala MPS 429305
2012 09 08.47421 01 11 16.19 -07 22 00.6 19.3 V G53 – Alder Springs Observatory, Auberry MPS 431801
2012 09 08.49367 01 11 15.68 -07 22 13.9 19.4 V G53 – Alder Springs Observatory, Auberry MPS 431801
2012 09 08.51541 01 11 15.07 -07 22 28.8 19.7 V G53 – Alder Springs Observatory, Auberry MPS 431801
2012 09 15.34889 01 07 45.48 -08 40 15.1 19.4 V 703 – Catalina Sky Survey MPS 433215
2012 09 15.35896 01 07 45.19 -08 40 20.8 20.1 V 703 – Catalina Sky Survey MPS 433215
2012 09 15.36914 01 07 44.79 -08 40 28.2 19.4 V 703 – Catalina Sky Survey MPS 433215
2012 09 15.37922 01 07 44.43 -08 40 35.7 20.1 V 703 – Catalina Sky Survey MPS 433215
2012 10 07.25707 00 52 01.45 -12 21 29.8 18.6 R 926 – Tenagra II Observatory, Nogales MPS 434881
2012 10 07.26862 00 52 00.87 -12 21 34.6 18.3 R 926 – Tenagra II Observatory, Nogales MPS 434881
2012 10 07.27815 00 52 00.38 -12 21 39.3 18.3 R 926 – Tenagra II Observatory, Nogales MPS 434881
2012 10 08.29389 00 51 13.60 -12 29 42.5 18.9 V 703 – Catalina Sky Survey MPS 434881
2012 10 08.29991 00 51 13.32 -12 29 44.3 19.3 V 703 – Catalina Sky Survey MPS 434881
2012 10 08.30588 00 51 12.96 -12 29 46.8 18.8 V 703 – Catalina Sky Survey MPS 434881
2012 10 08.31185 00 51 12.67 -12 29 50.1 18.4 V 703 – Catalina Sky Survey MPS 434881
2012 10 10.362180 00 49 39.376 -12 45 15.18 19.2 w F51 – Pan-STARRS 1, Haleakala MPS 437703
2012 10 10.376088 00 49 38.717 -12 45 21.26 19.2 w F51 – Pan-STARRS 1, Haleakala MPS 437703
2012 10 10.390022 00 49 38.051 -12 45 27.37 19.2 w F51 – Pan-STARRS 1, Haleakala MPS 437703
2012 10 10.403930 00 49 37.390 -12 45 33.44 19.0 w F51 – Pan-STARRS 1, Haleakala MPS 437703
2012 10 22.26904 00 41 25.33 -13 51 33.9 18.6 V 703 – Catalina Sky Survey MPS 439339
2012 10 22.27465 00 41 25.15 -13 51 35.0 19.1 V 703 – Catalina Sky Survey MPS 439339
2012 10 22.28031 00 41 24.90 -13 51 37.0 18.9 V 703 – Catalina Sky Survey MPS 439339
2012 10 22.28587 00 41 24.68 -13 51 38.2 18.9 V 703 – Catalina Sky Survey MPS 439339
2014 12 10.59764 11 35 19.132 +04 55 01.75 20.9 i F51 – Pan-STARRS 1, Haleakala MPS 552887
2014 12 10.61188 11 35 19.769 +04 55 00.62 21.0 i F51 – Pan-STARRS 1, Haleakala MPS 552887
2014 12 10.62509 11 35 20.370 +04 54 59.15 21.2 i F51 – Pan-STARRS 1, Haleakala MPS 552887
2015 01 19.53004 11 53 43.869 +05 41 58.88 21.5 w F51 – Pan-STARRS 1, Haleakala MPS 566847
2015 01 19.54354 11 53 43.929 +05 42 02.65 21.4 w F51 – Pan-STARRS 1, Haleakala MPS 566847
2015 01 19.55709 11 53 43.975 +05 42 06.19 21.6 w F51 – Pan-STARRS 1, Haleakala MPS 566847
2015 01 19.57068 11 53 44.030 +05 42 09.91 21.5 w F51 – Pan-STARRS 1, Haleakala MPS 566847
2015 01 21.56293 11 53 51.569 +05 51 18.92 21.6 w F51 – Pan-STARRS 1, Haleakala MPS 566847
2015 01 21.57445 11 53 51.584 +05 51 22.18 21.2 w F51 – Pan-STARRS 1, Haleakala MPS 566847
2015 01 21.60036 11 53 51.615 +05 51 29.51 21.3 w F51 – Pan-STARRS 1, Haleakala MPS 566847
